ASA25M KLAX-KLAS

Flight info

Callsign ASA25M
Flight time 0h 42m
Altitude 27000
Route ORCKA5 MISEN RNDRZ4
Aircraft A320/M-SDE3FGHIRWY/LB1

Departure

Time 2026-05-03 23:58
Airport Los Angeles International Airport (KLAX)

Arrival

Time 2026-05-04 00:40
Airport Harry Reid International Airport (KLAS)
Time Latitude Longitude Altitude Speed Heading
2026-05-03 23:36 33.94794 -118.40127 123 ft 0 kts 187°
2026-05-03 23:51 33.94804 -118.40125 121 ft 2 kts 185°
2026-05-03 23:52 33.94820 -118.40124 123 ft 2 kts 180°
2026-05-03 23:52 33.94837 -118.40126 124 ft 2 kts 105°
2026-05-03 23:52 33.94838 -118.40140 123 ft 1 kts 84°
2026-05-03 23:52 33.94838 -118.40141 123 ft 0 kts 84°
2026-05-03 23:55 33.94843 -118.40109 125 ft 12 kts 73°
2026-05-03 23:55 33.94911 -118.40066 122 ft 10 kts 41°
2026-05-03 23:55 33.94929 -118.39990 125 ft 9 kts 78°
2026-05-03 23:55 33.94951 -118.39928 124 ft 7 kts 46°
2026-05-03 23:56 33.94955 -118.39925 121 ft 0 kts 34°
2026-05-03 23:56 33.94973 -118.39915 122 ft 11 kts 20°
2026-05-03 23:56 33.95040 -118.39974 125 ft 14 kts 271°
2026-05-03 23:57 33.95038 -118.39998 125 ft 0 kts 262°
2026-05-03 23:57 33.95031 -118.40054 123 ft 32 kts 262°
2026-05-03 23:57 33.94965 -118.40697 126 ft 120 kts 263°
2026-05-03 23:57 33.94835 -118.41935 349 ft 166 kts 262°
2026-05-03 23:58 33.94680 -118.43315 1239 ft 165 kts 262°
2026-05-03 23:58 33.94522 -118.44762 1895 ft 184 kts 262°
2026-05-03 23:58 33.94348 -118.46380 2247 ft 205 kts 262°
2026-05-03 23:58 33.94151 -118.48193 2656 ft 231 kts 262°
2026-05-03 23:59 33.93935 -118.50191 3275 ft 247 kts 261°
2026-05-03 23:59 33.93707 -118.52270 4152 ft 252 kts 261°
2026-05-03 23:59 33.93470 -118.54402 4768 ft 261 kts 261°
2026-05-03 23:59 33.93226 -118.56571 5345 ft 262 kts 259°
2026-05-04 00:00 33.92635 -118.58644 6283 ft 266 kts 238°
2026-05-04 00:00 33.91361 -118.60244 7196 ft 268 kts 213°
2026-05-04 00:00 33.89614 -118.61038 8114 ft 273 kts 188°
2026-05-04 00:00 33.87714 -118.60816 9015 ft 281 kts 163°
2026-05-04 00:01 33.86056 -118.59547 9910 ft 291 kts 136°
2026-05-04 00:01 33.85037 -118.57415 10680 ft 303 kts 108°
2026-05-04 00:01 33.84994 -118.54855 11428 ft 316 kts 77°
2026-05-04 00:01 33.86017 -118.52493 12103 ft 328 kts 52°
2026-05-04 00:02 33.87562 -118.50335 12329 ft 353 kts 48°
2026-05-04 00:02 33.89317 -118.48131 12507 ft 376 kts 46°
2026-05-04 00:02 33.91212 -118.45852 12781 ft 393 kts 45°
2026-05-04 00:02 33.93116 -118.43442 13383 ft 400 kts 52°
2026-05-04 00:03 33.94767 -118.40729 14016 ft 404 kts 56°
2026-05-04 00:03 33.96385 -118.37931 14578 ft 410 kts 56°
2026-05-04 00:03 33.98002 -118.35075 15085 ft 417 kts 56°
2026-05-04 00:03 33.99640 -118.32154 15619 ft 423 kts 56°
2026-05-04 00:04 34.01298 -118.29193 16132 ft 430 kts 56°
2026-05-04 00:04 34.02985 -118.26187 16669 ft 436 kts 56°
2026-05-04 00:04 34.04693 -118.23155 17244 ft 439 kts 55°
2026-05-04 00:04 34.06426 -118.20093 17773 ft 444 kts 55°
2026-05-04 00:05 34.08370 -118.17188 18262 ft 447 kts 41°
2026-05-04 00:05 34.10851 -118.14928 18674 ft 449 kts 31°
2026-05-04 00:05 34.13459 -118.12820 19120 ft 453 kts 30°
2026-05-04 00:05 34.16092 -118.10688 19536 ft 458 kts 30°
2026-05-04 00:06 34.18745 -118.08521 19955 ft 463 kts 30°
2026-05-04 00:06 34.21422 -118.06314 20372 ft 468 kts 30°
2026-05-04 00:06 34.24116 -118.04073 20736 ft 472 kts 30°
2026-05-04 00:06 34.26826 -118.01794 21123 ft 477 kts 30°
2026-05-04 00:07 34.29555 -117.99479 21544 ft 481 kts 30°
2026-05-04 00:07 34.32284 -117.97149 22308 ft 473 kts 30°
2026-05-04 00:07 34.34935 -117.94846 23286 ft 468 kts 30°
2026-05-04 00:07 34.37577 -117.92522 23761 ft 471 kts 30°
2026-05-04 00:08 34.40219 -117.90148 24230 ft 475 kts 31°
2026-05-04 00:08 34.42862 -117.87737 24602 ft 477 kts 31°
2026-05-04 00:08 34.45513 -117.85292 24985 ft 480 kts 31°
2026-05-04 00:08 34.48174 -117.82825 25363 ft 483 kts 31°
2026-05-04 00:09 34.50842 -117.80340 25752 ft 485 kts 31°
2026-05-04 00:09 34.53523 -117.77834 26146 ft 488 kts 31°
2026-05-04 00:09 34.56214 -117.75311 26521 ft 490 kts 31°
2026-05-04 00:09 34.58919 -117.72766 26804 ft 493 kts 31°
2026-05-04 00:10 34.61626 -117.70210 26876 ft 493 kts 31°
2026-05-04 00:10 34.64332 -117.67655 26901 ft 493 kts 31°
2026-05-04 00:10 34.67036 -117.65101 26890 ft 492 kts 31°
2026-05-04 00:10 34.69741 -117.62546 26883 ft 492 kts 31°
2026-05-04 00:11 34.72444 -117.59993 26892 ft 492 kts 31°
2026-05-04 00:11 34.75150 -117.57439 26884 ft 492 kts 31°
2026-05-04 00:11 34.77847 -117.54874 26877 ft 494 kts 34°
2026-05-04 00:11 34.80243 -117.51832 26882 ft 504 kts 50°
2026-05-04 00:12 34.81955 -117.48100 26873 ft 509 kts 69°
2026-05-04 00:12 34.82714 -117.45404 26859 ft 509 kts 72°
2026-05-04 00:12 34.83800 -117.41307 26863 ft 509 kts 72°
2026-05-04 00:12 34.84885 -117.37209 26863 ft 509 kts 72°
2026-05-04 00:13 34.85964 -117.33135 26849 ft 499 kts 72°
2026-05-04 00:13 34.87348 -117.27921 26844 ft 483 kts 72°
2026-05-04 00:13 34.88380 -117.24040 26831 ft 481 kts 72°
2026-05-04 00:13 34.89407 -117.20170 26817 ft 480 kts 72°
2026-05-04 00:14 34.90102 -117.17552 26809 ft 480 kts 72°
2026-05-04 00:14 34.91127 -117.13682 26804 ft 480 kts 72°
2026-05-04 00:14 34.92152 -117.09805 26799 ft 480 kts 72°
2026-05-04 00:14 34.93173 -117.05929 26799 ft 481 kts 72°
2026-05-04 00:15 34.94528 -117.00794 26801 ft 481 kts 72°
2026-05-04 00:15 34.95220 -116.98177 26795 ft 481 kts 72°
2026-05-04 00:15 34.96243 -116.94299 26797 ft 480 kts 72°
2026-05-04 00:15 34.97249 -116.90467 26800 ft 481 kts 72°
2026-05-04 00:16 34.98264 -116.86590 26779 ft 480 kts 72°
2026-05-04 00:16 34.99277 -116.82709 26790 ft 480 kts 72°
2026-05-04 00:16 35.00281 -116.78838 26795 ft 478 kts 72°
2026-05-04 00:16 35.01284 -116.74976 26797 ft 478 kts 72°
2026-05-04 00:17 35.02212 -116.71402 26792 ft 479 kts 72°
2026-05-04 00:17 35.03236 -116.67460 26788 ft 479 kts 72°
2026-05-04 00:17 35.04228 -116.63641 26787 ft 479 kts 72°
2026-05-04 00:17 35.05234 -116.59764 26780 ft 479 kts 72°
2026-05-04 00:18 35.06237 -116.55890 26776 ft 479 kts 72°
2026-05-04 00:18 35.07235 -116.52021 26772 ft 478 kts 72°
2026-05-04 00:18 35.08234 -116.48147 26766 ft 478 kts 72°
2026-05-04 00:18 35.09406 -116.44356 26762 ft 477 kts 64°
2026-05-04 00:19 35.10920 -116.40765 26758 ft 475 kts 56°
2026-05-04 00:19 35.12749 -116.37402 26383 ft 473 kts 48°
2026-05-04 00:19 35.14859 -116.34380 26130 ft 464 kts 41°
2026-05-04 00:19 35.17092 -116.31531 25909 ft 462 kts 41°
2026-05-04 00:20 35.19309 -116.28685 25372 ft 465 kts 41°
2026-05-04 00:20 35.21535 -116.25811 24925 ft 461 kts 42°
2026-05-04 00:20 35.23706 -116.22973 24650 ft 453 kts 43°
2026-05-04 00:20 35.25814 -116.20136 24180 ft 450 kts 44°
2026-05-04 00:21 35.27930 -116.17236 23292 ft 462 kts 45°
2026-05-04 00:21 35.30059 -116.14281 22591 ft 462 kts 46°
2026-05-04 00:21 35.32168 -116.11336 22113 ft 457 kts 46°
2026-05-04 00:21 35.34252 -116.08436 21703 ft 450 kts 46°
2026-05-04 00:22 35.36308 -116.05591 21176 ft 440 kts 47°
2026-05-04 00:22 35.38321 -116.02815 20414 ft 431 kts 47°
2026-05-04 00:22 35.40296 -116.00102 19738 ft 421 kts 47°
2026-05-04 00:22 35.42225 -115.97457 19074 ft 411 kts 48°
2026-05-04 00:23 35.44104 -115.94876 18408 ft 401 kts 49°
2026-05-04 00:23 35.45938 -115.92352 17689 ft 392 kts 50°
2026-05-04 00:23 35.47746 -115.89860 17040 ft 390 kts 50°
2026-05-04 00:23 35.49536 -115.87387 16905 ft 388 kts 50°
2026-05-04 00:24 35.51319 -115.84920 16744 ft 386 kts 50°
2026-05-04 00:24 35.53099 -115.82457 16576 ft 384 kts 50°
2026-05-04 00:24 35.54875 -115.79998 16406 ft 385 kts 50°
2026-05-04 00:24 35.56644 -115.77542 16235 ft 383 kts 50°
2026-05-04 00:25 35.58392 -115.75116 16091 ft 374 kts 50°
2026-05-04 00:25 35.60094 -115.72771 15963 ft 362 kts 50°
2026-05-04 00:25 35.61762 -115.70511 15829 ft 352 kts 50°
2026-05-04 00:25 35.63404 -115.68304 15580 ft 347 kts 49°
2026-05-04 00:26 35.65005 -115.66156 15376 ft 343 kts 50°
2026-05-04 00:26 35.66607 -115.64000 15186 ft 340 kts 50°
2026-05-04 00:26 35.68200 -115.61851 15032 ft 340 kts 49°
2026-05-04 00:26 35.69789 -115.59709 14853 ft 339 kts 49°
2026-05-04 00:27 35.71376 -115.57567 14685 ft 338 kts 50°
2026-05-04 00:27 35.73072 -115.55566 14513 ft 339 kts 38°
2026-05-04 00:27 35.75057 -115.54013 14346 ft 338 kts 30°
2026-05-04 00:27 35.77103 -115.52591 14168 ft 337 kts 29°
2026-05-04 00:28 35.79145 -115.51169 14003 ft 338 kts 30°
2026-05-04 00:28 35.81183 -115.49745 13828 ft 336 kts 30°
2026-05-04 00:28 35.83216 -115.48315 13658 ft 336 kts 30°
2026-05-04 00:28 35.85247 -115.46884 13473 ft 337 kts 31°
2026-05-04 00:29 35.87278 -115.45455 13299 ft 336 kts 31°
2026-05-04 00:29 35.89313 -115.44023 13129 ft 336 kts 31°
2026-05-04 00:29 35.91336 -115.42599 12939 ft 336 kts 31°
2026-05-04 00:29 35.93375 -115.41171 12564 ft 336 kts 30°
2026-05-04 00:30 35.95407 -115.39754 12176 ft 335 kts 30°
2026-05-04 00:30 35.97428 -115.38345 11770 ft 335 kts 31°
2026-05-04 00:30 35.99247 -115.36592 11488 ft 328 kts 49°
2026-05-04 00:30 36.00559 -115.34310 11010 ft 326 kts 69°
2026-05-04 00:31 36.01240 -115.31705 10746 ft 314 kts 85°
2026-05-04 00:31 36.01321 -115.29058 10437 ft 305 kts 98°
2026-05-04 00:31 36.01196 -115.26452 10177 ft 302 kts 97°
2026-05-04 00:31 36.01068 -115.23872 9915 ft 300 kts 98°
2026-05-04 00:32 36.00940 -115.21303 9649 ft 299 kts 98°
2026-05-04 00:32 36.00812 -115.18751 9428 ft 295 kts 99°
2026-05-04 00:32 36.00685 -115.16271 9314 ft 284 kts 98°
2026-05-04 00:32 36.00563 -115.13882 9193 ft 274 kts 99°
2026-05-04 00:33 36.00447 -115.11573 9065 ft 263 kts 99°
2026-05-04 00:33 36.00232 -115.07217 8650 ft 250 kts 99°
2026-05-04 00:33 36.00122 -115.05131 8423 ft 237 kts 99°
2026-05-04 00:34 36.00018 -115.03136 8223 ft 231 kts 98°
2026-05-04 00:34 35.99917 -115.01163 7996 ft 229 kts 99°
2026-05-04 00:34 35.99870 -114.99188 7667 ft 231 kts 97°
2026-05-04 00:34 35.99858 -114.97200 7320 ft 232 kts 96°
2026-05-04 00:35 35.99857 -114.95207 6993 ft 231 kts 97°
2026-05-04 00:35 36.00074 -114.93252 6705 ft 235 kts 73°
2026-05-04 00:35 36.00987 -114.91579 6404 ft 239 kts 45°
2026-05-04 00:35 36.02421 -114.90492 6082 ft 248 kts 20°
2026-05-04 00:36 36.04145 -114.90227 5669 ft 255 kts 351°
2026-05-04 00:36 36.05793 -114.90996 5241 ft 252 kts 317°
2026-05-04 00:36 36.06912 -114.92549 5035 ft 235 kts 289°
2026-05-04 00:36 36.07353 -114.94402 4800 ft 218 kts 263°
2026-05-04 00:37 36.07364 -114.96263 4546 ft 217 kts 261°
2026-05-04 00:37 36.07363 -114.98121 4272 ft 214 kts 261°
2026-05-04 00:37 36.07367 -114.99909 4035 ft 201 kts 261°
2026-05-04 00:37 36.07368 -115.01592 3792 ft 192 kts 263°
2026-05-04 00:38 36.07368 -115.03203 3551 ft 183 kts 264°
2026-05-04 00:38 36.07369 -115.04735 3344 ft 170 kts 263°
2026-05-04 00:38 36.07371 -115.06112 3151 ft 156 kts 262°
2026-05-04 00:38 36.07370 -115.07412 2955 ft 145 kts 258°
2026-05-04 00:39 36.07370 -115.08641 2772 ft 140 kts 259°
2026-05-04 00:39 36.07368 -115.09830 2558 ft 138 kts 260°
2026-05-04 00:39 36.07366 -115.11045 2339 ft 143 kts 264°
2026-05-04 00:39 36.07366 -115.12296 2163 ft 146 kts 265°
2026-05-04 00:40 36.07349 -115.13413 2120 ft 105 kts 270°
2026-05-04 00:40 36.07362 -115.14102 2125 ft 56 kts 270°
2026-05-04 00:40 36.07392 -115.14391 2129 ft 22 kts 288°
2026-05-04 00:40 36.07461 -115.14568 2128 ft 25 kts 299°
2026-05-04 00:41 36.07538 -115.14653 2125 ft 0 kts
2026-05-04 00:41 36.07540 -115.14653 2125 ft 0 kts 358°
2026-05-04 00:41 36.07541 -115.14653 2129 ft 0 kts 356°
2026-05-04 00:42 36.07542 -115.14653 2129 ft 1 kts 356°
2026-05-04 00:42 36.07551 -115.14654 2128 ft 1 kts 357°
2026-05-04 00:42 36.07610 -115.14655 2125 ft 17 kts
2026-05-04 00:43 36.07731 -115.14653 2121 ft 18 kts
2026-05-04 00:43 36.07768 -115.14535 2119 ft 15 kts 96°
2026-05-04 00:43 36.07758 -115.14418 2121 ft 15 kts 95°
2026-05-04 00:43 36.07754 -115.14247 2120 ft 22 kts 88°
2026-05-04 00:44 36.07755 -115.14121 2120 ft 22 kts 92°